Wind_Speed
46 48 49 49 48 47 47 47 47 47 46 46 45 44 43 41 41 41 42 42 42 41 40 39 39 38 37 37 37 37 38 38 37 37 39 40 42 43 43 44 44 44 45
45 47 48 48 48 47 47 46 47 47 46 45 45 45 43 42 41 41 41 41 41 41 40 39 39 38 38 38 38 38 39 39 39 39 39 40 41 42 43 43 43 44 44
44 46 47 46 46 47 46 46 46 46 45 44 45 45 44 43 42 41 41 41 42 42 41 40 40 38 38 37 38 39 40 39 39 39 39 40 41 42 43 42 42 43 44
42 42 43 45 46 46 45 45 45 46 45 46 45 45 45 42 42 42 42 41 41 41 41 41 40 39 39 38 39 40 40 39 39 39 40 40 41 42 42 42 42 43 43
39 40 41 42 44 45 45 45 43 43 43 44 44 44 44 43 41 41 41 41 41 41 41 41 40 40 40 39 40 40 39 38 38 39 40 41 41 42 42 41 42 42 42
37 38 39 40 40 41 42 42 41 41 41 42 43 42 42 41 42 41 40 41 40 40 40 41 40 40 39 40 40 38 38 38 39 39 39 40 40 41 41 40 40 40 40
36 36 37 37 37 38 40 41 41 41 40 40 40 41 40 41 41 42 41 39 39 39 39 39 40 40 40 40 39 38 38 39 39 39 39 39 39 39 40 40 39 38 38
35 35 34 35 36 37 39 40 40 40 39 39 40 40 40 41 41 41 40 39 39 39 38 38 37 38 39 39 39 39 39 39 39 38 38 38 38 38 38 38 38 37 35
34 34 35 34 35 35 37 37 37 38 39 39 39 39 39 39 39 39 40 39 39 39 38 38 37 37 38 39 39 38 38 38 38 38 37 36 36 36 36 36 36 35 34
33 33 34 35 33 33 33 34 35 36 38 38 37 37 37 37 37 37 37 39 39 38 37 37 37 37 37 37 38 38 37 37 36 36 36 34 34 34 34 35 35 34 33
31 31 32 32 32 32 32 33 34 35 36 36 36 35 36 36 36 35 35 36 37 37 37 37 36 36 36 36 36 36 35 35 35 35 35 34 33 33 33 33 33 33 33
30 30 30 30 31 31 31 32 33 35 36 36 36 35 35 36 35 35 35 35 35 35 36 36 35 35 35 35 35 34 33 32 33 33 34 34 34 33 33 32 32 33 33
28 28 29 29 30 31 31 31 32 33 34 35 35 34 34 34 34 34 34 34 34 34 34 34 34 34 34 33 31 30 30 30 31 32 32 32 32 32 31 31 32 32 32
27 28 29 30 30 31 31 31 31 31 31 32 32 33 33 33 33 32 32 32 33 33 32 32 32 32 32 31 29 28 28 29 30 31 31 31 30 30 29 29 29 29 29
28 28 29 29 29 30 30 30 31 31 31 30 30 31 32 32 32 31 31 30 31 31 32 32 31 30 29 29 29 29 29 29 30 29 28 28 28 28 27 27 27 27 26
29 29 29 29 29 29 30 30 30 30 30 30 29 29 30 31 30 30 29 29 29 29 29 29 29 29 29 28 28 29 30 29 28 27 26 26 26 26 26 25 25 24 25
29 29 29 29 29 29 29 29 29 29 29 29 29 28 28 28 28 29 28 28 28 28 28 27 27 27 27 27 28 28 28 28 27 26 25 25 25 25 25 24 24 24 24
27 27 28 28 29 28 28 28 28 28 28 27 27 27 26 26 26 27 28 28 27 27 27 26 26 26 26 26 27 27 26 25 25 24 24 23 23 23 23 22 22 21 21
25 25 25 25 26 26 26 26 26 26 26 26 26 26 26 25 25 25 26 26 26 26 26 26 26 26 26 26 25 24 22 21 21 21 20 20 20 20 19 19 18 18 18
23 23 22 22 22 23 23 24 24 24 25 25 25 25 25 24 24 24 24 24 25 25 25 25 25 24 24 23 22 21 20 20 20 19 18 18 18 17 17 16 16 16 16
21 21 20 19 19 20 20 21 22 22 23 23 23 23 23 23 23 23 23 23 23 23 24 23 23 23 22 22 21 20 20 19 19 18 17 16 16 16 15 15 14 14 15
20 19 18 18 18 18 18 19 20 20 20 20 21 21 21 21 21 21 22 22 22 22 22 22 22 22 22 22 21 20 19 18 17 16 16 15 15 15 15 15 14 13 13
18 18 18 17 17 16 16 16 17 17 17 18 18 19 20 20 20 20 21 20 20 20 21 21 22 22 21 21 20 19 18 16 16 15 14 13 13 13 14 13 13 12 11
16 17 16 16 15 15 15 15 15 15 16 16 17 17 18 19 19 19 19 19 19 19 20 20 21 20 20 19 19 18 17 17 16 14 13 13 12 12 11 11 10 10 10
15 15 15 15 14 14 14 14 14 14 14 15 15 15 15 16 17 17 18 18 18 18 18 18 18 18 18 18 18 17 17 15 14 13 12 12 11 10 9 9 8 8 8
14 14 14 13 13 13 13 13 13 13 13 13 13 14 14 14 14 15 15 15 16 16 17 17 17 17 17 17 17 16 16 15 13 12 12 11 9 8 7 7 6 6 5
Wind_Direction
256 256 257 257 257 258 259 260 261 262 261 260 260 261 262 263 263 265 266 265 265 267 269 270 270 272 273 275 278 282 285 287 289 290 292 294 295 297 299 300 302 304 305
256 257 258 259 259 259 259 260 261 261 260 261 260 260 260 260 260 262 264 265 266 266 268 268 269 271 274 275 278 280 284 287 289 291 293 294 296 297 300 301 303 305 306
257 257 258 258 259 260 260 260 260 260 260 260 261 261 261 260 260 261 264 265 264 265 266 267 269 271 272 275 277 280 283 286 288 290 293 296 296 298 299 301 302 304 306
259 259 260 259 258 258 259 260 260 260 260 261 260 261 261 261 261 262 263 264 263 264 265 266 268 270 272 274 277 279 282 284 286 288 292 295 296 298 299 300 301 303 305
260 261 261 260 259 258 257 258 259 258 258 260 260 260 261 262 262 262 263 262 262 263 264 265 267 269 272 274 276 279 281 284 285 287 290 293 295 298 299 301 302 304 306
262 262 261 261 260 258 256 256 257 257 258 259 258 259 261 261 261 263 264 263 264 264 264 265 266 269 271 274 275 277 280 283 285 287 290 293 295 298 300 302 304 305 307
263 262 261 262 261 258 257 258 257 256 255 256 258 258 258 259 259 261 262 262 261 263 265 265 266 268 271 272 274 278 281 283 285 288 292 294 296 298 301 303 306 308 308
264 262 262 262 261 260 259 258 257 255 255 256 257 258 258 258 257 258 258 260 261 262 263 264 266 267 269 271 275 277 279 282 285 288 292 295 297 300 303 305 307 308 309
265 263 263 263 263 262 260 258 256 255 254 255 256 257 257 257 258 258 259 260 262 262 264 265 266 268 270 273 275 276 279 283 287 290 293 296 298 301 304 306 307 308 308
266 265 264 264 263 260 259 257 255 254 255 256 256 255 256 256 257 259 261 261 262 262 263 265 268 270 272 274 276 277 279 283 285 289 292 296 299 302 304 304 305 306 307
267 265 265 263 261 261 261 259 257 255 255 256 256 255 255 257 257 259 260 261 261 262 264 266 268 271 273 275 276 277 279 281 284 287 290 295 299 301 302 303 305 305 306
268 267 265 262 261 262 262 261 260 258 257 256 256 256 256 256 257 258 259 261 262 264 265 265 267 270 273 275 277 278 279 282 285 288 291 295 298 300 301 303 304 305 307
269 267 265 263 263 262 263 264 262 261 259 257 255 255 256 256 257 259 260 261 262 263 264 265 266 269 271 274 277 278 279 282 286 290 292 296 298 299 301 302 303 306 308
268 266 265 265 264 264 264 264 263 261 260 258 257 255 254 255 257 258 260 261 260 261 262 264 265 267 269 272 275 277 280 283 287 290 292 294 296 298 300 303 305 307 309
268 268 268 267 266 265 264 264 263 261 259 259 257 257 256 255 256 258 260 259 258 259 262 263 264 265 268 270 273 277 280 284 288 290 292 294 296 299 301 303 304 307 310
270 269 269 268 267 266 266 264 262 260 258 258 257 257 256 256 257 258 257 257 258 259 261 262 263 264 265 268 272 276 279 283 286 289 292 294 297 300 301 303 304 307 310
272 271 269 269 268 267 266 264 261 258 256 256 256 256 257 256 255 256 257 258 259 260 261 262 262 262 262 266 272 276 278 280 282 285 288 293 297 300 302 303 305 307 310
273 272 271 270 268 266 265 263 260 257 256 255 255 255 255 255 255 255 256 258 258 259 259 260 262 262 264 267 272 276 277 278 280 284 288 293 298 301 303 305 308 310 313
273 273 272 271 268 265 263 261 259 256 254 253 253 254 254 254 254 255 256 258 258 258 259 260 261 263 264 266 270 273 274 277 280 285 290 295 299 301 303 306 312 314 315
272 271 270 269 268 264 260 258 258 255 254 252 250 251 252 254 254 254 256 256 256 257 257 259 259 261 262 263 266 267 270 274 278 284 289 293 296 298 302 307 312 316 318
272 271 269 269 270 266 261 259 258 256 254 251 249 249 250 252 253 254 255 256 256 256 256 256 257 258 261 264 264 265 269 274 277 280 285 290 292 295 299 304 309 313 317
268 267 268 269 270 268 263 259 258 255 253 249 246 246 247 250 252 254 254 255 256 256 255 254 255 258 262 264 263 263 267 271 272 274 280 285 288 291 294 300 306 311 315
265 265 267 268 268 265 262 259 256 252 250 246 245 246 247 250 252 254 254 254 254 255 254 255 257 258 261 261 260 261 265 267 269 275 277 281 285 290 295 298 303 308 314
265 265 263 264 264 260 258 257 255 253 250 247 247 248 249 250 252 251 251 252 253 254 255 256 257 258 259 257 257 257 258 260 265 271 274 276 281 288 295 300 303 310 316
266 263 262 261 258 256 255 255 254 252 251 249 248 249 249 251 252 250 250 250 250 252 253 254 254 256 256 254 253 252 252 253 257 262 267 271 276 282 290 298 305 314 319
264 262 260 257 253 251 252 251 249 248 248 248 248 248 250 252 252 251 250 249 251 251 252 255 255 255 253 250 249 247 245 245 249 254 259 264 267 273 281 289 301 315 321
Height
5640 5643 5645 5648 5650 5653 5656 5658 5659 5661 5663 5665 5667 5669 5671 5673 5674 5675 5676 5677 5678 5679 5679 5680 5680 5680 5680 5679 5678 5677 5676 5674 5672 5670 5667 5663 5659 5655 5651 5646 5641 5636 5631
5629 5631 5633 5636 5638 5641 5643 5646 5647 5649 5652 5654 5656 5658 5660 5662 5663 5664 5665 5666 5667 5668 5669 5670 5670 5670 5670 5670 5669 5668 5667 5665 5663 5661 5657 5654 5650 5646 5642 5637 5632 5626 5621
5618 5620 5622 5624 5626 5629 5631 5633 5635 5638 5640 5642 5644 5646 5648 5650 5652 5653 5654 5656 5657 5658 5659 5660 5661 5661 5661 5661 5660 5659 5657 5655 5653 5651 5648 5645 5641 5637 5632 5627 5622 5617 5611
5607 5609 5611 5612 5614 5617 5619 5621 5624 5626 5628 5630 5633 5635 5637 5639 5641 5642 5643 5645 5646 5647 5649 5650 5650 5651 5651 5651 5650 5649 5648 5646 5643 5641 5639 5636 5632 5627 5623 5618 5614 5608 5603
5597 5598 5599 5601 5603 5605 5608 5610 5612 5614 5617 5619 5621 5623 5625 5627 5629 5631 5632 5634 5635 5637 5638 5639 5640 5641 5641 5641 5640 5639 5638 5636 5634 5632 5630 5627 5623 5618 5614 5609 5604 5599 5593
5587 5588 5589 5590 5592 5594 5596 5599 5601 5603 5606 5608 5609 5611 5614 5616 5618 5620 5621 5623 5625 5626 5628 5629 5630 5630 5631 5631 5630 5629 5628 5627 5625 5623 5620 5617 5613 5609 5604 5599 5595 5590 5585
5578 5579 5580 5581 5582 5584 5586 5588 5590 5592 5594 5596 5598 5601 5603 5605 5607 5609 5611 5613 5614 5616 5618 5619 5620 5620 5621 5621 5620 5619 5618 5617 5615 5613 5611 5607 5604 5600 5595 5591 5586 5580 5575
5569 5570 5570 5571 5573 5574 5575 5577 5579 5581 5584 5586 5588 5590 5592 5595 5597 5599 5601 5603 5605 5606 5608 5609 5609 5610 5611 5610 5610 5609 5608 5607 5606 5604 5601 5598 5594 5590 5586 5581 5577 5572 5567
5560 5561 5562 5562 5563 5564 5565 5567 5569 5571 5574 5576 5578 5580 5582 5584 5586 5588 5590 5593 5595 5596 5597 5598 5599 5600 5601 5601 5601 5600 5599 5598 5596 5594 5591 5588 5584 5581 5577 5573 5569 5564 5560
5551 5552 5552 5553 5554 5555 5556 5557 5559 5561 5563 5566 5568 5570 5572 5574 5576 5578 5580 5583 5585 5586 5588 5589 5589 5590 5590 5590 5591 5590 5590 5589 5587 5585 5583 5580 5576 5572 5568 5564 5560 5556 5551
5542 5543 5544 5544 5545 5546 5548 5549 5550 5552 5554 5556 5559 5561 5563 5565 5567 5568 5570 5572 5574 5576 5577 5579 5580 5580 5581 5581 5581 5581 5580 5579 5578 5576 5574 5572 5568 5565 5561 5557 5553 5548 5544
5534 5535 5536 5536 5537 5538 5539 5540 5541 5542 5544 5547 5549 5551 5553 5555 5557 5559 5560 5562 5564 5566 5568 5569 5570 5571 5571 5571 5572 5572 5571 5570 5569 5568 5566 5563 5560 5557 5554 5550 5546 5542 5537
5527 5527 5527 5528 5529 5529 5530 5531 5532 5533 5535 5537 5539 5541 5544 5546 5547 5549 5551 5553 5554 5556 5558 5559 5561 5562 5562 5563 5563 5563 5562 5562 5561 5559 5558 5555 5552 5549 5546 5543 5539 5535 5531
5519 5519 5519 5520 5520 5521 5521 5522 5523 5524 5526 5527 5529 5532 5534 5536 5538 5540 5541 5543 5545 5547 5549 5550 5552 5553 5553 5554 5555 5555 5554 5554 5553 5552 5550 5548 5545 5542 5539 5536 5533 5529 5525
5510 5510 5511 5511 5511 5512 5512 5513 5514 5515 5517 5519 5521 5522 5525 5527 5529 5531 5532 5534 5536 5538 5539 5541 5543 5544 5545 5546 5547 5547 5547 5546 5545 5544 5542 5540 5538 5535 5532 5530 5527 5523 5520
5501 5501 5502 5502 5502 5503 5503 5504 5505 5507 5508 5510 5512 5514 5515 5517 5519 5521 5523 5525 5526 5528 5530 5532 5534 5536 5537 5538 5539 5539 5539 5538 5537 5536 5535 5533 5531 5529 5526 5523 5520 5517 5514
5492 5492 5492 5493 5493 5494 5495 5496 5497 5498 5499 5501 5503 5505 5506 5508 5510 5512 5514 5516 5518 5520 5522 5524 5526 5528 5529 5530 5531 5531 5531 5530 5530 5529 5528 5526 5524 5522 5520 5517 5514 5512 5508
5484 5484 5484 5484 5485 5485 5486 5487 5488 5490 5491 5493 5494 5496 5498 5500 5501 5503 5505 5507 5509 5511 5514 5516 5518 5520 5521 5522 5522 5523 5523 5523 5523 5522 5521 5520 5518 5516 5514 5512 5509 5506 5503
5476 5475 5475 5476 5476 5476 5477 5478 5480 5481 5483 5484 5486 5488 5490 5492 5494 5496 5497 5499 5502 5504 5506 5508 5510 5512 5513 5514 5515 5515 5516 5516 5516 5516 5515 5514 5512 5511 5509 5507 5504 5502 5499
5468 5468 5467 5468 5468 5468 5469 5470 5471 5473 5474 5476 5478 5481 5483 5485 5487 5489 5490 5492 5494 5497 5499 5501 5502 5504 5505 5507 5508 5509 5509 5510 5510 5510 5509 5508 5507 5506 5504 5502 5500 5498 5496
5461 5461 5461 5461 5461 5461 5462 5463 5464 5465 5467 5469 5471 5474 5476 5478 5480 5482 5484 5485 5487 5489 5491 5493 5495 5497 5499 5500 5501 5502 5503 5504 5504 5504 5503 5503 5502 5501 5499 5498 5496 5494 5493
5454 5454 5455 5455 5455 5455 5456 5457 5458 5459 5460 5462 5465 5467 5469 5472 5474 5476 5477 5479 5481 5482 5484 5487 5489 5490 5492 5493 5494 5496 5497 5498 5498 5498 5498 5498 5497 5496 5495 5494 5493 5491 5490
5448 5448 5449 5449 5449 5450 5451 5451 5452 5454 5455 5457 5459 5461 5464 5466 5468 5469 5471 5473 5474 5476 5478 5480 5482 5484 5485 5486 5488 5490 5491 5492 5493 5493 5493 5493 5493 5492 5491 5491 5490 5488 5487
5442 5443 5443 5444 5444 5445 5446 5447 5448 5449 5451 5453 5454 5456 5458 5460 5462 5463 5465 5467 5468 5470 5472 5474 5475 5477 5479 5480 5482 5484 5485 5486 5487 5488 5489 5489 5488 5488 5488 5487 5486 5485 5485
5437 5438 5438 5439 5440 5441 5442 5443 5444 5445 5447 5448 5450 5452 5453 5455 5456 5458 5459 5461 5463 5465 5466 5468 5469 5471 5473 5474 5476 5478 5480 5481 5482 5483 5484 5484 5485 5485 5485 5485 5484 5483 5483
5432 5433 5434 5434 5435 5437 5438 5439 5440 5442 5443 5445 5446 5448 5449 5450 5452 5453 5455 5456 5458 5459 5461 5462 5464 5465 5467 5468 5470 5472 5474 5476 5478 5479 5480 5481 5482 5482 5482 5482 5482 5481 5481